SCP
0 0 0 0 0 0 0 0 0 0 0 0 0 0 0 0 0 0 0 0 0 0 0 0 0 0 0 0 0 0 0 0 0 0 0 0 0 0 0 0 0 0 0
0 0 0 0 0 0 0 0 0 0 0 0 0 0 0 0 0 0 0 0 0 0 0 0 0 0 0 0 0 0 0 0 0 0 0 0 0 0 0 0 0 0 0
0 0 0 0 0 0 0 0 0 0 0 0 0 0 0 0 0 0 0 0 0 0 0 0 0 0 0 0 0 0 0 0 0 0 0 0 0 0 0 0 0 0 0
0 0 0 0 0 0 0 0 0 0 0 0 0 0 0 0 0 0 0 0 0 0 0 0 0 0 0 0 0 0 0 0 0 0 0 0 0 0 0 0 0 0 0
0 0 0 0 0 0 0 0 0 0 0 0 0 0 0 0 0 0 0 0 0 0 0 0 0 0 0 0 0 0 0 0 0 0 0 0 0 0 0 0 0 0 0
0 0 0 0 0 0 0 0 0 0 0 0 0 0 0 0 0 0 0 0 0 0 0 0 0 0 0 0 0 0 0 0 0 0 0 0 0 0 0 0 0 0 0
0 0 0 0 0 0 0 0 0 0 0 0 0 0 0 0 0 0 0 0 0 0 0 0 0 0 0 0 0 0 0 0 0 0 0 0 0 0 0 0 0 0 0
0 0 0 0 0 0 0 0 0 0 0 0 0 0 0 0 0 0 0 0 0 0 0 0 0 0 0 0 0 0 0 0 0 0 0 0 0 0 0 0 0 0 0
0 0 0 0 0 0 0 0 0 0 0 0 0 0 0 0 0 0 0 0 0 0 0 0 0 0 0 0 0 0 0 0 0 0 0 0 0 0 0 0 0 0 0
0 0 0 0 0 0 0 0 0 0 0 0 0 0 0 0 0 0 0 0 0 0 0 0 0 0 0 0 0 0 0 0 0 0 0 0 0 0 0 0 0 0 0
0 0 0 0 0 0 0 0 0 0 0 0 0 0 0 0 0 0 0 0 0 0 0 0 0 0 0 0 0 0 0 0 0 0 0 0 0 0 0 0 0 0 0
0 0 0 0 0 0 0 0 0 0 0 0 0 0 0 0 0 0 0 0 0 0 0 0 0 0 0 0 0 0 0 0 0 0 0 0 0 0 0 0 0 0 0
0 0 0 0 0 0 0 0 0 0 0 0 0 0 0 0 0 0 0 0 0 0 0 0 0 0 0 0 0 0 0 0 0 0 0 0 0 0 0 0 0 0 0
0 0 0 0 0 0 0 0 0 0 0 0 0 0 0 0 0 0 0 0 0 0 0 0 0 0 0 0 0 0 0 0 0 0 0 0 0 0 0 0 0 0 0
0 0 0 0 0 0 0 0 0 0 0 0 0 0 0 0 0 0 0 0 0 0 0 0 0 0 0 0 0 0 0 0 0 0 0 0 0 0 0 0 0 0 0
0 0 0 0 0 0 0 0 0 0 0 0 0 0 0 0 0 0 0 0 0 0 0 0 0 0 0 0 0 0 0 0 0 0 0 0 0 0 0 0 0 0 0
0 0 0 0 0 0 0 0 0 0 0 0 0 0 0 0 0 0 0 0 0 0 0 0 0 0 0 0 0 0 0 0 0 0 0 0 0 0 0 0 0 0 0
0 0 0 0 0 0 0 0 0 0 0 0 0 0 0 0 0 0 0 0 0 0 0 0 0 0 0 0 0 0 0 0 0 0 0 0 0 0 0 0 0 0 0
-0 0 0 0 0 0 0 0 0 0 0 0 0 0 0 0 0 0 0 0 0 0 0 0 0 0 0 0 0 0 0 0 0 0 0 0 0 0 0 0 0 0 0
-0 -0 -0 -0 0 0 0 0 0 0 0 0 0 0 0 0 0 0 0 0 0 0 0 0 0 0 0 0 0 0 0 0 0 0 0 0 0 0 0 0 0 0 0
-0 -0 -0 -0 -0 -0 -0 -0 -0 0 0 0 0 0 0 0 0 0 0 0 0 0 0 0 0 0 0 0 0 0 0 0 0 0 0 0 0 0 0 0 0 0 0
0 0 0 0 0 0 0 0 0 0 0 0 0 0 0 0 0 0 0 0 0 0 0 0 0 0 0 0 0 0 0 0 0 0 0 0 0 0 0 0 0 0 0
0 0 0 0 0 0 0 0 0 0 0 0 0 0 0 0 0 0 0 0 0 0 0 0 0 0 0 0 0 0 0 0 0 0 0 0 0 0 0 0 0 0 0
0 0 0 0 0 0 0 0 0 0 0 0 0 0 0 0 0 0 0 0 0 0 0 0 0 0 0 0 0 0 0 0 0 0 0 0 0 0 0 0 0 0 0
0 0 0 0 0 0 0 0 0 0 0 0 0 0 0 0 0 0 0 0 0 0 0 0 0 0 0 0 0 0 0 0 0 0 0 0 0 0 0 0 0 0 0
0 0 0 0 0 0 0 0 0 0 0 0 0 0 0 0 0 0 0 0 0 0 0 0 0 0 0 0 0 0 0 0 0 0 0 0 0 0 0 0 0 0 0
Wind_Speed_500mb
53 51 50 48 44 40 35 34 34 37 37 36 34 33 32 31 29 27 27 27 27 27 27 28 26 24 23 29 25 24 20 24 24 26 28 30 31 31 33 34 38 43 45
52 54 57 57 50 45 39 39 39 40 41 42 41 39 38 36 34 32 31 30 30 29 29 30 30 27 27 33 27 26 21 23 24 26 27 28 31 33 31 31 31 31 33
51 49 45 48 46 42 41 43 44 45 46 47 46 45 44 42 41 39 37 35 34 33 32 33 34 28 29 34 22 26 23 23 23 23 26 28 29 26 24 26 27 27 29
44 44 45 46 43 39 42 45 47 47 46 49 50 50 50 49 47 45 44 42 39 38 38 37 39 36 36 36 25 27 30 21 23 23 24 28 26 25 26 25 25 27 26
38 43 41 39 40 39 43 46 48 49 49 51 52 55 57 56 53 52 50 49 45 44 42 40 42 38 43 40 30 30 33 25 26 25 27 29 28 28 26 26 28 29 29
32 35 37 38 41 43 45 47 49 51 53 53 55 58 61 62 61 61 59 56 52 52 47 44 44 47 54 46 37 35 33 28 28 29 31 31 32 30 30 29 29 29 29
24 28 31 34 38 42 43 44 48 51 55 55 58 63 67 68 69 69 68 63 63 60 56 51 49 52 58 53 50 47 39 41 36 34 36 35 34 32 33 32 30 29 28
21 17 23 29 33 37 40 43 48 52 53 54 57 63 61 64 72 78 75 71 68 67 66 61 57 58 61 61 57 56 52 50 46 40 36 36 35 34 34 33 32 31 29
20 18 15 19 25 33 37 39 43 49 55 53 56 57 26 23 37 47 59 69 76 77 74 70 66 65 66 66 65 62 60 57 56 49 40 39 38 36 36 35 33 32 31
13 16 17 19 23 30 34 36 38 43 49 55 56 61 66 77 76 59 49 37 52 71 78 78 75 74 73 72 71 68 66 64 62 55 50 46 42 41 39 37 36 34 33
11 15 21 24 25 26 28 30 35 41 48 54 57 58 64 70 78 90 84 75 74 64 64 72 77 79 79 78 76 74 72 70 66 59 58 53 50 47 45 43 41 39 38
22 21 19 22 26 29 32 35 36 34 39 50 56 60 64 71 69 72 84 94 96 92 89 83 82 80 81 83 82 80 77 75 70 65 66 60 56 52 49 46 44 42 40
34 33 34 33 32 33 34 38 41 44 44 44 47 57 64 71 73 80 89 95 103 101 96 91 85 82 83 88 86 85 82 80 76 74 70 66 62 58 54 51 49 46 44
40 40 41 40 40 39 40 41 43 45 50 52 55 55 59 65 71 75 81 87 95 89 95 100 90 80 79 83 86 87 89 88 83 80 78 72 68 64 61 57 55 52 49
44 47 48 47 47 49 49 49 48 50 51 51 56 60 66 68 67 69 73 77 87 87 94 80 80 85 85 81 83 90 93 90 88 86 86 79 75 70 67 65 62 59 55
50 54 57 58 58 56 54 56 58 55 57 57 56 55 60 66 72 72 72 73 79 91 108 90 85 79 75 81 78 82 92 96 97 94 91 87 82 77 75 73 68 65 60
56 58 62 65 68 69 67 67 64 64 63 62 61 62 61 60 63 69 73 75 79 83 102 109 106 100 97 94 88 83 83 96 100 100 95 94 89 86 83 79 75 71 65
60 65 68 70 72 72 76 80 81 75 74 72 72 65 62 64 70 66 64 71 78 82 90 101 102 102 99 93 97 95 93 91 98 102 100 99 97 95 90 88 84 78 71
70 69 69 73 77 77 80 81 85 87 90 87 85 80 74 65 69 71 71 70 69 74 85 94 101 98 98 94 90 98 98 100 102 102 101 103 105 102 101 96 92 84 79
86 90 92 94 93 94 95 96 96 96 95 96 96 94 88 84 80 72 70 74 71 72 76 88 97 89 90 91 88 96 103 106 106 106 108 109 109 109 108 105 99 94 84
98 102 105 109 111 113 114 102 91 92 96 102 105 103 101 99 96 90 83 80 74 74 77 82 93 85 88 92 96 97 104 104 106 108 113 117 117 113 115 112 109 103 91
107 111 114 115 118 118 114 80 75 78 83 90 102 113 113 111 112 108 103 94 86 83 83 84 88 91 93 86 87 92 99 100 110 112 111 117 119 121 122 119 115 107 101
110 113 116 117 121 122 102 85 84 87 94 100 99 97 95 100 102 110 114 111 102 96 90 90 94 97 97 90 80 88 94 102 113 95 84 105 119 127 126 122 117 111 106
108 113 116 116 118 121 98 84 83 87 96 102 102 102 100 101 106 99 97 103 115 116 113 102 100 103 101 101 94 93 94 97 94 103 106 111 111 118 121 125 121 115 112
110 111 110 110 106 105 91 75 71 78 92 108 114 108 99 102 105 99 96 100 104 115 120 114 107 104 99 92 91 91 97 87 96 94 106 107 97 102 115 119 123 120 119
103 98 97 89 88 89 80 70 62 69 81 87 89 93 93 97 103 101 100 102 103 108 99 99 104 106 101 99 92 93 104 99 97 78 103 97 93 89 72 104 113 114 122
Wind_Direction_500mb
254 260 268 273 275 263 259 259 253 249 249 250 251 253 255 257 259 260 262 262 263 263 264 269 270 269 267 267 273 268 248 243 245 247 248 244 243 242 240 239 240 239 239
248 258 267 272 274 263 260 262 260 256 254 254 254 255 256 258 258 258 259 260 261 262 263 263 266 265 248 264 267 275 266 255 254 255 252 249 245 248 250 247 244 242 239
252 270 272 272 279 259 261 262 261 257 253 252 253 255 255 255 256 258 259 259 259 259 258 258 260 258 237 259 262 267 267 262 258 254 252 252 256 259 256 250 249 249 248
251 272 277 278 285 270 267 266 264 263 262 259 257 255 254 254 255 256 257 257 257 258 256 255 253 253 243 265 264 261 270 260 257 251 250 252 256 256 254 253 251 249 245
266 270 273 275 277 273 275 275 270 268 267 267 267 264 261 257 254 254 255 256 256 255 253 251 249 244 251 262 260 259 262 263 251 246 247 251 251 252 253 252 251 252 252
269 274 273 269 270 273 281 281 279 277 275 273 270 266 262 261 260 259 258 257 258 256 255 252 246 242 247 263 257 256 257 261 255 254 252 254 254 254 253 253 253 255 257
273 279 279 278 282 282 285 286 283 280 279 278 276 272 268 264 259 258 257 257 257 258 256 253 249 246 254 260 258 256 257 266 265 258 257 257 256 256 256 256 257 257 256
263 282 289 283 282 282 282 278 279 283 283 279 276 277 280 277 268 261 259 258 257 257 256 254 251 249 252 255 256 257 258 263 269 266 257 257 256 253 253 254 254 256 257
256 252 262 274 280 280 281 283 282 277 279 284 281 271 278 263 282 270 263 258 255 255 256 254 253 252 251 253 254 254 255 256 261 267 263 258 256 253 253 252 251 252 254
265 269 269 269 269 272 278 284 280 277 277 278 279 277 273 268 275 287 278 280 266 255 256 255 253 251 251 252 253 254 253 252 255 261 261 260 256 254 253 251 251 251 252
326 309 304 300 295 290 282 275 278 281 277 275 274 275 275 271 271 269 280 278 273 275 272 264 259 255 254 254 254 253 253 252 254 254 254 255 254 250 248 248 249 249 249
9 3 351 335 322 309 297 291 284 279 274 272 272 273 271 270 269 271 274 278 279 276 272 272 269 265 260 257 254 254 252 251 252 250 251 252 251 249 247 247 248 249 252
352 351 349 344 337 330 321 308 298 290 284 277 275 274 272 270 271 271 273 275 277 277 275 271 267 267 265 261 257 255 252 252 250 249 249 248 249 248 247 246 246 246 248
344 339 332 328 327 325 322 316 311 303 295 289 280 274 275 275 273 271 272 276 278 276 274 268 266 262 262 261 262 259 254 251 250 248 248 246 246 246 246 245 245 246 249
329 327 328 325 320 318 318 314 310 308 303 295 291 287 279 274 271 273 274 271 274 277 275 270 268 265 262 262 262 261 258 255 252 247 247 245 245 246 245 243 244 246 247
323 322 322 320 317 317 315 312 311 307 302 300 297 291 288 284 279 273 271 271 269 272 274 273 270 266 266 265 262 261 260 258 253 249 246 245 244 245 245 244 244 246 249
320 319 317 314 311 311 312 309 306 304 303 301 295 293 291 292 287 280 275 270 268 268 272 275 275 273 263 258 261 262 259 258 255 249 247 245 243 243 244 244 243 245 247
315 314 311 309 306 305 305 304 304 301 299 298 295 293 289 289 289 288 282 276 273 270 270 273 274 273 269 263 259 258 260 259 257 252 248 245 243 242 242 243 241 243 246
314 310 306 303 302 302 299 297 295 297 297 295 292 291 290 286 283 284 287 286 281 277 273 273 273 272 270 265 260 257 255 256 254 253 251 246 244 241 241 242 241 242 243
311 309 308 305 303 300 298 295 292 289 286 284 286 287 286 284 283 282 280 281 284 281 277 274 273 269 268 265 260 258 255 253 253 252 250 247 245 242 240 240 241 240 241
307 305 304 302 303 302 301 301 298 296 292 288 282 279 280 280 280 280 278 276 277 279 278 275 273 268 262 259 255 255 255 256 254 252 249 246 243 242 241 239 238 237 238
303 303 302 300 299 298 297 293 291 290 287 282 283 284 280 277 275 275 275 273 272 274 273 272 268 265 263 257 261 256 256 251 250 247 246 248 245 244 243 240 238 236 235
303 301 299 298 296 294 293 290 288 286 285 283 281 280 280 277 277 275 274 275 273 268 266 269 266 264 264 261 256 255 252 251 253 249 248 250 248 247 245 244 240 238 236
303 301 299 297 295 293 295 292 288 282 276 274 276 278 276 275 275 275 274 273 273 272 268 263 264 267 267 267 256 254 256 258 261 256 250 248 250 252 250 248 244 238 236
305 303 302 301 300 299 300 298 295 285 276 271 270 272 273 273 273 273 272 270 268 267 268 268 264 263 265 266 262 252 246 240 242 243 243 242 241 248 247 248 246 240 235
307 307 305 304 304 303 304 301 296 290 287 286 286 282 279 275 276 275 272 271 269 265 262 263 264 263 260 262 256 247 246 236 236 239 242 238 236 239 236 242 244 243 234
Wind_Speed_850mb
53 51 50 48 44 40 35 34 34 37 37 36 34 33 32 31 29 27 27 27 27 27 27 28 26 24 23 29 25 24 20 24 24 26 28 30 31 31 33 34 38 43 45
52 54 57 57 50 45 39 39 39 40 41 42 41 39 38 36 34 32 31 30 30 29 29 30 30 27 27 33 27 26 21 23 24 26 27 28 31 33 31 31 31 31 33
51 49 45 48 46 42 41 43 44 45 46 47 46 45 44 42 41 39 37 35 34 33 32 33 34 28 29 34 22 26 23 23 23 23 26 28 29 26 24 26 27 27 29
44 44 45 46 43 39 42 45 47 47 46 49 50 50 50 49 47 45 44 42 39 38 38 37 39 36 36 36 25 27 30 21 23 23 24 28 26 25 26 25 25 27 26
38 43 41 39 40 39 43 46 48 49 49 51 52 55 57 56 53 52 50 49 45 44 42 40 42 38 43 40 30 30 33 25 26 25 27 29 28 28 26 26 28 29 29
32 35 37 38 41 43 45 47 49 51 53 53 55 58 61 62 61 61 59 56 52 52 47 44 44 47 54 46 37 35 33 28 28 29 31 31 32 30 30 29 29 29 29
24 28 31 34 38 42 43 44 48 51 55 55 58 63 67 68 69 69 68 63 63 60 56 51 49 52 58 53 50 47 39 41 36 34 36 35 34 32 33 32 30 29 28
21 17 23 29 33 37 40 43 48 52 53 54 57 63 61 64 72 78 75 71 68 67 66 61 57 58 61 61 57 56 52 50 46 40 36 36 35 34 34 33 32 31 29
20 18 15 19 25 33 37 39 43 49 55 53 56 57 26 23 37 47 59 69 76 77 74 70 66 65 66 66 65 62 60 57 56 49 40 39 38 36 36 35 33 32 31
13 16 17 19 23 30 34 36 38 43 49 55 56 61 66 77 76 59 49 37 52 71 78 78 75 74 73 72 71 68 66 64 62 55 50 46 42 41 39 37 36 34 33
11 15 21 24 25 26 28 30 35 41 48 54 57 58 64 70 78 90 84 75 74 64 64 72 77 79 79 78 76 74 72 70 66 59 58 53 50 47 45 43 41 39 38
22 21 19 22 26 29 32 35 36 34 39 50 56 60 64 71 69 72 84 94 96 92 89 83 82 80 81 83 82 80 77 75 70 65 66 60 56 52 49 46 44 42 40
34 33 34 33 32 33 34 38 41 44 44 44 47 57 64 71 73 80 89 95 103 101 96 91 85 82 83 88 86 85 82 80 76 74 70 66 62 58 54 51 49 46 44
40 40 41 40 40 39 40 41 43 45 50 52 55 55 59 65 71 75 81 87 95 89 95 100 90 80 79 83 86 87 89 88 83 80 78 72 68 64 61 57 55 52 49
44 47 48 47 47 49 49 49 48 50 51 51 56 60 66 68 67 69 73 77 87 87 94 80 80 85 85 81 83 90 93 90 88 86 86 79 75 70 67 65 62 59 55
50 54 57 58 58 56 54 56 58 55 57 57 56 55 60 66 72 72 72 73 79 91 108 90 85 79 75 81 78 82 92 96 97 94 91 87 82 77 75 73 68 65 60
56 58 62 65 68 69 67 67 64 64 63 62 61 62 61 60 63 69 73 75 79 83 102 109 106 100 97 94 88 83 83 96 100 100 95 94 89 86 83 79 75 71 65
60 65 68 70 72 72 76 80 81 75 74 72 72 65 62 64 70 66 64 71 78 82 90 101 102 102 99 93 97 95 93 91 98 102 100 99 97 95 90 88 84 78 71
70 69 69 73 77 77 80 81 85 87 90 87 85 80 74 65 69 71 71 70 69 74 85 94 101 98 98 94 90 98 98 100 102 102 101 103 105 102 101 96 92 84 79
86 90 92 94 93 94 95 96 96 96 95 96 96 94 88 84 80 72 70 74 71 72 76 88 97 89 90 91 88 96 103 106 106 106 108 109 109 109 108 105 99 94 84
98 102 105 109 111 113 114 102 91 92 96 102 105 103 101 99 96 90 83 80 74 74 77 82 93 85 88 92 96 97 104 104 106 108 113 117 117 113 115 112 109 103 91
107 111 114 115 118 118 114 80 75 78 83 90 102 113 113 111 112 108 103 94 86 83 83 84 88 91 93 86 87 92 99 100 110 112 111 117 119 121 122 119 115 107 101
110 113 116 117 121 122 102 85 84 87 94 100 99 97 95 100 102 110 114 111 102 96 90 90 94 97 97 90 80 88 94 102 113 95 84 105 119 127 126 122 117 111 106
108 113 116 116 118 121 98 84 83 87 96 102 102 102 100 101 106 99 97 103 115 116 113 102 100 103 101 101 94 93 94 97 94 103 106 111 111 118 121 125 121 115 112
110 111 110 110 106 105 91 75 71 78 92 108 114 108 99 102 105 99 96 100 104 115 120 114 107 104 99 92 91 91 97 87 96 94 106 107 97 102 115 119 123 120 119
103 98 97 89 88 89 80 70 62 69 81 87 89 93 93 97 103 101 100 102 103 108 99 99 104 106 101 99 92 93 104 99 97 78 103 97 93 89 72 104 113 114 122
Wind_Direction_850mb
254 260 268 273 275 263 259 259 253 249 249 250 251 253 255 257 259 260 262 262 263 263 264 269 270 269 267 267 273 268 248 243 245 247 248 244 243 242 240 239 240 239 239
248 258 267 272 274 263 260 262 260 256 254 254 254 255 256 258 258 258 259 260 261 262 263 263 266 265 248 264 267 275 266 255 254 255 252 249 245 248 250 247 244 242 239
252 270 272 272 279 259 261 262 261 257 253 252 253 255 255 255 256 258 259 259 259 259 258 258 260 258 237 259 262 267 267 262 258 254 252 252 256 259 256 250 249 249 248
251 272 277 278 285 270 267 266 264 263 262 259 257 255 254 254 255 256 257 257 257 258 256 255 253 253 243 265 264 261 270 260 257 251 250 252 256 256 254 253 251 249 245
266 270 273 275 277 273 275 275 270 268 267 267 267 264 261 257 254 254 255 256 256 255 253 251 249 244 251 262 260 259 262 263 251 246 247 251 251 252 253 252 251 252 252
269 274 273 269 270 273 281 281 279 277 275 273 270 266 262 261 260 259 258 257 258 256 255 252 246 242 247 263 257 256 257 261 255 254 252 254 254 254 253 253 253 255 257
273 279 279 278 282 282 285 286 283 280 279 278 276 272 268 264 259 258 257 257 257 258 256 253 249 246 254 260 258 256 257 266 265 258 257 257 256 256 256 256 257 257 256
263 282 289 283 282 282 282 278 279 283 283 279 276 277 280 277 268 261 259 258 257 257 256 254 251 249 252 255 256 257 258 263 269 266 257 257 256 253 253 254 254 256 257
256 252 262 274 280 280 281 283 282 277 279 284 281 271 278 263 282 270 263 258 255 255 256 254 253 252 251 253 254 254 255 256 261 267 263 258 256 253 253 252 251 252 254
265 269 269 269 269 272 278 284 280 277 277 278 279 277 273 268 275 287 278 280 266 255 256 255 253 251 251 252 253 254 253 252 255 261 261 260 256 254 253 251 251 251 252
326 309 304 300 295 290 282 275 278 281 277 275 274 275 275 271 271 269 280 278 273 275 272 264 259 255 254 254 254 253 253 252 254 254 254 255 254 250 248 248 249 249 249
9 3 351 335 322 309 297 291 284 279 274 272 272 273 271 270 269 271 274 278 279 276 272 272 269 265 260 257 254 254 252 251 252 250 251 252 251 249 247 247 248 249 252
352 351 349 344 337 330 321 308 298 290 284 277 275 274 272 270 271 271 273 275 277 277 275 271 267 267 265 261 257 255 252 252 250 249 249 248 249 248 247 246 246 246 248
344 339 332 328 327 325 322 316 311 303 295 289 280 274 275 275 273 271 272 276 278 276 274 268 266 262 262 261 262 259 254 251 250 248 248 246 246 246 246 245 245 246 249
329 327 328 325 320 318 318 314 310 308 303 295 291 287 279 274 271 273 274 271 274 277 275 270 268 265 262 262 262 261 258 255 252 247 247 245 245 246 245 243 244 246 247
323 322 322 320 317 317 315 312 311 307 302 300 297 291 288 284 279 273 271 271 269 272 274 273 270 266 266 265 262 261 260 258 253 249 246 245 244 245 245 244 244 246 249
320 319 317 314 311 311 312 309 306 304 303 301 295 293 291 292 287 280 275 270 268 268 272 275 275 273 263 258 261 262 259 258 255 249 247 245 243 243 244 244 243 245 247
315 314 311 309 306 305 305 304 304 301 299 298 295 293 289 289 289 288 282 276 273 270 270 273 274 273 269 263 259 258 260 259 257 252 248 245 243 242 242 243 241 243 246
314 310 306 303 302 302 299 297 295 297 297 295 292 291 290 286 283 284 287 286 281 277 273 273 273 272 270 265 260 257 255 256 254 253 251 246 244 241 241 242 241 242 243
311 309 308 305 303 300 298 295 292 289 286 284 286 287 286 284 283 282 280 281 284 281 277 274 273 269 268 265 260 258 255 253 253 252 250 247 245 242 240 240 241 240 241
307 305 304 302 303 302 301 301 298 296 292 288 282 279 280 280 280 280 278 276 277 279 278 275 273 268 262 259 255 255 255 256 254 252 249 246 243 242 241 239 238 237 238
303 303 302 300 299 298 297 293 291 290 287 282 283 284 280 277 275 275 275 273 272 274 273 272 268 265 263 257 261 256 256 251 250 247 246 248 245 244 243 240 238 236 235
303 301 299 298 296 294 293 290 288 286 285 283 281 280 280 277 277 275 274 275 273 268 266 269 266 264 264 261 256 255 252 251 253 249 248 250 248 247 245 244 240 238 236
303 301 299 297 295 293 295 292 288 282 276 274 276 278 276 275 275 275 274 273 273 272 268 263 264 267 267 267 256 254 256 258 261 256 250 248 250 252 250 248 244 238 236
305 303 302 301 300 299 300 298 295 285 276 271 270 272 273 273 273 273 272 270 268 267 268 268 264 263 265 266 262 252 246 240 242 243 243 242 241 248 247 248 246 240 235
307 307 305 304 304 303 304 301 296 290 287 286 286 282 279 275 276 275 272 271 269 265 262 263 264 263 260 262 256 247 246 236 236 239 242 238 236 239 236 242 244 243 234